Regional Weather Roundup
Issued by NWS

Home | Current Version | Previous Version | Text Only | Print | Product List | Glossary Off
Versions: 1 2 3 4 5 6 7 8 9 10 11 12 13 14 15 16 17 18 19 20 21 22 23 24 25 26 27 28 29 30 31 32 33 34 35 36 37 38 39 40 41 42 43 44 45 46 47 48 49 50

000
ASUS43 KDTX 012201
RWRMI
MICHIGAN HOURLY REGIONAL WEATHER ROUNDUP
NATIONAL WEATHER SERVICE DETROIT/PONTIAC MI
600 PM EDT MON SEP 01 2014

NOTE: "FAIR" INDICATES FEW OR NO CLOUDS BELOW 12,000 FEET WITH NO
SIGNIFICANT WEATHER AND/OR OBSTRUCTION TO VISIBILITY.

MIZ047>049-052>055-059>063-066>070-074>076-081>083-012300-
SOUTHEAST LOWER MICHIGAN

CITY           SKY/WX    TMP DP  RH WIND       PRES   REMARKS
ADRIAN         PTSUNNY   82  69  64 W12G25    29.79R
ALMA           PTSUNNY   79  69  72 SW12G24   29.72F
ANN ARBOR      CLOUDY    77  70  78 W9        29.77R
BAD AXE        CLOUDY    69  69 100 S9        29.74F
CARO           CLOUDY    71  70  96 S6        29.74F
DETROIT CITY   PTSUNNY   86  68  54 S15G21    29.73F
DETROIT        PTSUNNY   83  68  60 S18G25    29.75F
FLINT          CLOUDY    75  70  84 SW9       29.75S
GROSSE ILE     PTSUNNY   82  72  69 S15       29.74F
HILLSDALE      HVY RAIN  78  74  86 W14       29.81R
HOWELL         RAIN      71  69  93 SW16G22   29.78S

CITY           SKY/WX    TMP DP  RH WIND       PRES   REMARKS
JACKSON        CLOUDY    76  71  85 SW9       29.78S
LAMBERTVILLE   PTSUNNY   82  68  61 SW10G21   29.78F
LANSING        CLOUDY    76  70  82 SW9       29.75F
LAPEER         HVY RAIN  71  68  92 W7G21     29.76R
MASON          CLOUDY    73  69  89 CALM      29.77S
MONROE         MOSUNNY   84  68  58 SW15G24   29.75F
MT. CLEMENS    CLOUDY    82  69  65 S15       29.73F
PONTIAC        TSTM      72  69  90 W15G37    29.78R FOG
PORT HOPE        N/A     69  66  90 VRB5      29.71R
PORT HURON     CLOUDY    79  72  78 S9        29.75F
TRI CITIES     PTSUNNY   77  71  82 S10       29.72F
TROY           CLOUDY    84  67  55 S14G20    29.75F
SAGINAW HB     CLOUDY    73  73 100 SW6       29.72F
$$
MIZ043>046-050>051-056>058-064>065-071>073-077>080-012300-
SOUTHWEST LOWER MICHIGAN

CITY           SKY/WX    TMP DP  RH WIND       PRES   REMARKS
BATTLE CREEK   PTSUNNY   80  72  76 SW13      29.77F
BENTON HARBOR  SUNNY     81  66  60 SW16G24   29.76R
BIG RAPIDS     CLOUDY    76  68  75 SW9       29.71R
COLDWATER      PTSUNNY   78  73  84 W12       29.79F
FREMONT        CLOUDY    77  66  70 SW14G22   29.72S
HOLLAND        SUNNY     80  69  69 SW20G26   29.75S
GRAND RAPIDS   PTSUNNY   80  71  74 SW16G25   29.74S
IONIA          MOCLDY    81  69  67 W18       29.72F
KALAMAZOO      MOSUNNY   81  69  67 SW14G22   29.77R
LUDINGTON      CLOUDY    74  70  85 SW13G18   29.70S
MARSHALL       CLOUDY    78  72  80 SW8       29.77S
MOUNT PLEASANT MOSUNNY   80  65  61 SW14G24   29.70F
MUSKEGON       MOSUNNY   78  68  71 SW14      29.72F
SOUTH HAVEN    SUNNY     81  69  67 SW13G21   29.76R
$$
MIZ016>042-012300-
NORTHERN LOWER MICHIGAN

CITY           SKY/WX    TMP DP  RH WIND       PRES   REMARKS
ALPENA         MOSUNNY   74  67  78 S10       29.67S
BEAVER ISLAND  SUNNY     70  65  84 SW12      29.64S
BELLAIRE       CLOUDY    73  64  73 W3        29.67R
CADILLAC       PTSUNNY   73  67  80 SW10G18   29.71R
CHARLEVOIX     PTSUNNY   72  65  78 SW15      29.69R
FRANKFORT      CLOUDY    72  64  74 SW6       29.68S
GAYLORD        CLOUDY    72  63  73 W14G22    29.69R
GRAYLING       PTSUNNY   74  65  74 SW7       29.70R
HARBOR SPRINGS MOSUNNY   72  63  73 W8G20     29.66R
HOUGHTON LAKE  MOSUNNY   75  66  73 SW7       29.70S
MANISTEE       CLOUDY    73  66  78 SW9       29.69F
OSCODA         PTSUNNY   76  71  84 SW8       29.67F
PELLSTON       PTSUNNY   71  63  75 W13G26    29.66R
ROGERS CITY    MOSUNNY   73  68  83 SW10      29.66R
TRAVERSE CITY  PTSUNNY   76  62  62 W8G21     29.65R
$$
MIZ007>008-015-012300-
EASTERN UPPER MICHIGAN

CITY           SKY/WX    TMP DP  RH WIND       PRES   REMARKS
KINROSS        PTSUNNY   70  66  88 SW10G16   29.63R
MACKINAC ISLAN PTSUNNY   68  65  92 SW13G23   29.65R
NEWBERRY       PTSUNNY   69  64  85 SW13G23   29.60R
S. S. MARIE    PTSUNNY   71  65  81 SW13G18   29.60R
$$
MIZ004>006-011>014-085-012300-
CENTRAL UPPER MICHIGAN

CITY           SKY/WX    TMP DP  RH WIND       PRES   REMARKS
MANISTIQUE     PTSUNNY   73  64  74 SW7       29.61S
ESCANABA       PTSUNNY   72  63  73 W8        29.62R
MENOMINEE      CLOUDY    73  64  73 W6        29.64R
$$
MIZ001>003-009>011-084-012300-
WESTERN UPPER MICHIGAN

CITY           SKY/WX    TMP DP  RH WIND       PRES   REMARKS
IRON MOUNTAIN  MOSUNNY   70  62  76 NW8       29.64R
HOUGHTON       CLOUDY    66  57  72 W17G28    29.61R
COPPER HARBOR    N/A     68  58  70 NW10G26   29.57R
$$

ABBREVIATIONS USED IN REMARKS
   TC - TEMPERATURE IN CELSIUS
  WCI - WIND CHILL INDEX
   HX - HEAT INDEX
  VSB - VISIBILITY



USA.gov is the U.S. government's official web portal to all federal, state and local government web resources and services.